"Timestamp","TZ","WindDir_Mean (deg)","WindSpd_Mean (km/h)","WindSpd_Min (km/h)","WindSpd_Max (km/h)","Temp_Mean (deg)","RH_Mean (%)","MSLP_Mean (hPa)","Rain_Acc (mm)","Rain_Intensity (mm/h)","Hail_Acc (hits/cm2)","Hail_Intensity (hits/cm2hr)","Solar_Mean (W/m2)"
2020/06/12 00:00:00.016,n,234,1.8,1.44,2.16,16.9,86,1021.52,0,0,0,0,0.01915
2020/06/12 00:01:00.000,n,267,1.44,1.08,1.8,16.9,86,1021.52,0,0,0,0,0.022659
2020/06/12 00:02:00.000,n,225,1.8,1.44,2.16,16.9,85.9,1021.52,0,0,0,0,0.023499
2020/06/12 00:03:00.000,n,225,1.8,1.44,1.8,16.9,85.8,1021.52,0,0,0,0,0.021782
2020/06/12 00:04:00.005,n,254,2.52,2.16,2.52,16.8,85.8,1021.52,0,0,0,0,0.022659
2020/06/12 00:05:00.002,n,242,2.52,1.8,2.88,16.8,85.9,1021.52,0,0,0,0,0.022659
2020/06/12 00:06:00.000,n,249,2.88,2.16,3.6,16.8,86.1,1021.42,0,0,0,0,0.018272
2020/06/12 00:07:00.012,n,195,2.88,2.16,3.24,16.9,86,1021.42,0,0,0,0,0.020065
2020/06/12 00:08:00.011,n,248,2.52,2.16,2.88,16.9,86,1021.42,0,0,0,0,0.031357
2020/06/12 00:09:00.008,n,240,2.52,2.16,2.88,16.9,85.8,1021.42,0,0,0,0,0.033989
2020/06/12 00:10:00.000,n,251,1.8,1.8,2.16,16.9,86,1021.42,0,0,0,0,0.035706
2020/06/12 00:11:00.002,n,206,1.08,1.08,1.44,16.9,85.9,1021.42,0,0,0,0,0.034828
2020/06/12 00:12:00.000,n,258,1.8,1.8,2.16,16.8,85.8,1021.42,0,0,0,0,0.033112
2020/06/12 00:13:00.000,n,166,6.84,3.96,7.92,16.8,86,1021.42,0,0,0,0,0.034828
2020/06/12 00:14:00.000,n,226,3.6,3.24,4.32,16.8,86.1,1021.42,0,0,0,0,0.027847
2020/06/12 00:15:00.006,n,192,2.52,2.16,2.88,16.8,85.9,1021.42,0,0,0,0,0.027008
2020/06/12 00:16:00.004,n,209,1.8,1.08,2.52,16.8,85.9,1021.42,0,0,0,0,0.027847
2020/06/12 00:17:00.001,n,284,2.52,1.8,2.88,16.8,86.1,1021.42,0,0,0,0,0.031357
2020/06/12 00:18:00.015,n,243,1.44,1.08,1.8,16.9,86.1,1021.52,0,0,0,0,0.031357
2020/06/12 00:19:00.000,n,215,2.88,1.8,3.6,16.9,86,1021.42,0,0,0,0,0.032196
2020/06/12 00:20:00.000,n,180,3.24,3.24,3.24,16.8,85.9,1021.52,0,0,0,0,0.032196
2020/06/12 00:21:00.000,n,187,0.36,0,0.36,16.8,85.8,1021.42,0,0,0,0,0.033112
2020/06/12 00:22:00.006,n,150,1.08,0.72,1.44,16.8,85.7,1021.42,0,0,0,0,0.027847
2020/06/12 00:23:00.003,n,254,2.88,2.16,2.88,16.8,85.7,1021.42,0,0,0,0,0.028763
2020/06/12 00:24:00.001,n,220,2.16,1.8,2.52,16.700002,85.7,1021.42,0,0,0,0,0.029602
2020/06/12 00:25:00.000,n,167,1.44,1.08,1.44,16.700002,85.7,1021.42,0,0,0,0,0.025253
2020/06/12 00:26:00.011,n,235,2.88,2.52,3.24,16.700002,85.8,1021.42,0,0,0,0,0.028763
2020/06/12 00:27:00.009,n,93,1.08,0.72,1.44,16.700002,85.7,1021.42,0,0,0,0,0.027847
2020/06/12 00:28:00.000,n,210,3.24,2.88,3.6,16.6,85.7,1021.42,0,0,0,0,0.027008
2020/06/12 00:29:00.002,n,238,2.88,2.52,2.88,16.6,85.7,1021.42,0,0,0,0,0.030479
2020/06/12 00:30:00.000,n,318,1.44,0.72,1.8,16.6,85.8,1021.42,0,0,0,0,0.025253
2020/06/12 00:31:00.000,n,251,1.8,1.08,2.16,16.6,85.8,1021.42,0,0,0,0,0.030479
2020/06/12 00:32:00.000,n,250,2.16,1.8,2.52,16.5,85.8,1021.42,0,0,0,0,0.027847
2020/06/12 00:33:00.007,n,186,1.8,1.44,2.16,16.5,85.9,1021.42,0,0,0,0,0.028763
2020/06/12 00:34:00.004,n,267,3.24,2.88,3.6,16.5,85.9,1021.42,0,0,0,0,0.030479
2020/06/12 00:35:00.001,n,230,2.52,2.16,2.52,16.5,85.8,1021.52,0,0,0,0,0.028763
2020/06/12 00:36:00.014,n,244,2.52,2.16,2.88,16.5,85.9,1021.52,0,0,0,0,0.032196
2020/06/12 00:37:00.000,n,237,1.8,1.44,1.8,16.5,86,1021.52,0,0,0,0,0.027847
2020/06/12 00:38:00.000,n,267,4.68,4.32,5.04,16.5,85.9,1021.52,0,0,0,0,0.027008
2020/06/12 00:39:00.000,n,254,1.8,1.44,1.8,16.4,85.8,1021.52,0,0,0,0,0.026131
2020/06/12 00:40:00.004,n,248,3.96,3.6,5.04,16.4,85.8,1021.62,0,0,0,0,0.026131
2020/06/12 00:41:00.002,n,249,5.04,4.32,5.4,16.4,85.8,1021.52,0,0,0,0,0.027847
2020/06/12 00:42:00.000,n,232,4.32,3.6,5.04,16.4,85.8,1021.52,0,0,0,0,0.024414
2020/06/12 00:43:00.010,n,219,2.88,2.16,3.24,16.3,85.9,1021.52,0,0,0,0,0.028763
2020/06/12 00:44:00.009,n,304,2.88,2.16,3.24,16.3,85.9,1021.52,0,0,0,0,0.027008
2020/06/12 00:45:00.006,n,242,2.88,2.88,3.24,16.3,86,1021.52,0,0,0,0,0.035706
2020/06/12 00:46:00.000,n,261,4.32,3.96,4.32,16.3,85.9,1021.52,0,0,0,0,0.031357
2020/06/12 00:47:00.000,n,254,1.8,1.44,2.52,16.3,85.9,1021.52,0,0,0,0,0.03746
2020/06/12 00:48:00.000,n,92,1.08,0.72,1.44,16.3,86,1021.42,0,0,0,0,0.033951
2020/06/12 00:49:00.000,n,124,1.8,0.72,2.52,16.200002,86,1021.42,0,0,0,0,0.03746
2020/06/12 00:50:00.007,n,130,1.44,0.36,1.8,16.200002,86,1021.42,0,0,0,0,0.035706
2020/06/12 00:51:00.005,n,164,2.52,2.16,2.88,16.200002,86.1,1021.42,0,0,0,0,0.034828
2020/06/12 00:52:00.002,n,144,3.24,2.88,3.96,16.200002,86.3,1021.42,0,0,0,0,0.03746
2020/06/12 00:53:00.000,n,165,1.8,1.44,2.16,16.200002,86.4,1021.42,0,0,0,0,0.029602
2020/06/12 00:54:00.013,n,173,7.56,7.2,7.92,16.3,86.5,1021.32,0,0,0,0,0.034828
2020/06/12 00:55:00.000,n,193,0.72,0.36,1.44,16.3,86.4,1021.32,0,0,0,0,0.030479
2020/06/12 00:56:00.000,n,225,2.88,2.16,3.24,16.200002,86.3,1021.32,0,0,0,0,0.031357
2020/06/12 00:57:00.000,n,199,3.96,3.6,4.32,16.200002,86.4,1021.32,0,0,0,0,0.031357
2020/06/12 00:58:00.002,n,247,3.6,3.24,3.96,16.200002,86.5,1021.32,0,0,0,0,0.033073
2020/06/12 00:59:00.000,n,201,2.52,2.16,2.88,16.200002,86.4,1021.32,0,0,0,0,0.032234
2020/06/12 01:00:00.000,n,232,2.16,1.8,2.52,16.200002,86.4,1021.32,0,0,0,0,0.033073
2020/06/12 01:01:00.011,n,132,1.08,0.36,1.8,16.200002,86.4,1021.32,0,0,0,0,0.033073
2020/06/12 01:02:00.008,n,266,0.72,0.36,0.72,16.200002,86.5,1021.32,0,0,0,0,0.029602
2020/06/12 01:03:00.005,n,242,3.6,3.24,3.96,16.200002,86.5,1021.32,0,0,0,0,0.032234
2020/06/12 01:04:00.002,n,118,3.24,2.52,3.6,16.200002,86.5,1021.32,0,0,0,0,0.031357
2020/06/12 01:05:00.000,n,263,3.6,2.52,3.96,16.200002,86.4,1021.32,0,0,0,0,0.033073
2020/06/12 01:06:00.000,n,211,1.8,1.08,2.16,16.200002,86.5,1021.32,0,0,0,0,0.034828
2020/06/12 01:07:00.000,n,259,2.88,2.52,3.24,16.200002,86.4,1021.22,0,0,0,0,0.033073
2020/06/12 01:08:00.006,n,234,0.72,0.72,1.08,16.200002,86.4,1021.22,0,0,0,0,0.027885
2020/06/12 01:09:00.003,n,91,0.72,0.36,0.72,16.200002,86.4,1021.22,0,0,0,0,0.031357
2020/06/12 01:10:00.000,n,143,1.8,1.08,2.52,16.1,86.4,1021.22,0,0,0,0,0.027885
2020/06/12 01:11:00.013,n,162,1.08,0.72,1.44,16.1,86.3,1021.22,0,0,0,0,0.027008
2020/06/12 01:12:00.011,n,223,1.08,0.72,1.44,16.1,86.3,1021.12,0,0,0,0,0.026093
2020/06/12 01:13:00.000,n,241,3.24,2.88,3.6,16.1,86.3,1021.12,0,0,0,0,0.029602
2020/06/12 01:14:00.000,n,78,2.88,2.52,3.24,16.1,86.5,1021.12,0,0,0,0,0.026093
2020/06/12 01:15:00.003,n,188,3.96,3.24,4.68,16.1,86.3,1021.12,0,0,0,0,0.030479
2020/06/12 01:16:00.000,n,199,1.08,1.08,1.44,16,86.3,1021.02,0,0,0,0,0.027008
2020/06/12 01:17:00.000,n,71,0.72,0.36,1.08,16,86.3,1021.02,0,0,0,0,0.029602
2020/06/12 01:18:00.009,n,173,6.48,6.12,6.84,16,86.3,1021.02,0,0,0,0,0.027008
2020/06/12 01:19:00.006,n,147,2.16,1.8,2.16,16,86.2,1021.02,0,0,0,0,0.028725
2020/06/12 01:20:00.003,n,191,3.96,3.24,4.32,15.9,86.2,1021.02,0,0,0,0,0.020027
2020/06/12 01:21:00.001,n,187,2.88,1.8,3.96,15.9,86.2,1020.92,0,0,0,0,0.024376
2020/06/12 01:22:00.000,n,189,3.6,2.88,4.32,15.9,86.2,1020.92,0,0,0,0,0.024376
2020/06/12 01:23:00.000,n,210,0.36,0.36,0.72,15.9,86.2,1020.92,0,0,0,0,0.023537
2020/06/12 01:24:00.000,n,188,2.88,2.16,3.6,15.9,86.2,1020.92,0,0,0,0,0.016556
2020/06/12 01:25:00.005,n,136,5.04,3.96,6.48,15.9,86.2,1020.82,0,0,0,0,0.025253
2020/06/12 01:26:00.002,n,245,2.52,1.8,2.88,15.9,86.2,1020.82,0,0,0,0,0.025253
2020/06/12 01:27:00.000,n,194,3.96,2.88,4.68,15.9,86.3,1020.82,0,0,0,0,0.023537
2020/06/12 01:28:00.012,n,268,3.96,3.24,5.04,15.9,86.4,1020.82,0,0,0,0,0.025215
2020/06/12 01:29:00.008,n,164,3.24,0.72,3.96,15.9,86.5,1020.82,0,0,0,0,0.027847
2020/06/12 01:30:00.005,n,152,5.04,2.52,6.12,15.9,86.3,1020.82,0,0,0,0,0.033073
2020/06/12 01:31:00.000,n,201,4.68,3.96,5.76,15.8,86.2,1020.72,0,0,0,0,0.02697
2020/06/12 01:32:00.000,n,175,1.8,1.08,2.16,15.8,86.3,1020.72,0,0,0,0,0.031319
2020/06/12 01:33:00.000,n,271,1.08,0.72,1.44,15.8,86.3,1020.72,0,0,0,0,0.02697
2020/06/12 01:34:00.000,n,126,1.08,0.72,1.44,15.8,86.2,1020.72,0,0,0,0,0.031319
2020/06/12 01:35:00.008,n,154,2.16,1.08,2.88,15.8,86.2,1020.72,0,0,0,0,0.027847
2020/06/12 01:36:00.006,n,200,7.56,5.76,8.64,15.8,86.2,1020.72,0,0,0,0,0.029564
2020/06/12 01:37:00.002,n,175,2.88,2.52,3.96,15.8,86.2,1020.72,0,0,0,0,0.030479
2020/06/12 01:38:00.000,n,203,3.6,2.88,4.68,15.8,86.2,1020.62,0,0,0,0,0.028687
2020/06/12 01:39:00.012,n,220,2.88,2.88,3.6,15.8,86.3,1020.72,0,0,0,0,0.021744
2020/06/12 01:40:00.000,n,142,2.52,1.8,3.24,15.8,86.3,1020.62,0,0,0,0,0.029564
2020/06/12 01:41:00.000,n,130,0.72,0.36,1.08,15.8,86.2,1020.62,0,0,0,0,0.026131
2020/06/12 01:42:00.004,n,102,1.08,0.72,1.44,15.8,86.3,1020.62,0,0,0,0,0.028687
2020/06/12 01:43:00.001,n,263,2.52,1.08,3.6,15.7,86.2,1020.62,0,0,0,0,0.023499
2020/06/12 01:44:00.000,n,9,0.72,0.36,1.08,15.7,86.2,1020.62,0,0,0,0,0.024338
2020/06/12 01:45:00.000,n,309,1.44,0.72,1.44,15.7,86.2,1020.62,0,0,0,0,0.025215
2020/06/12 01:46:00.008,n,206,1.44,0.72,1.8,15.7,86.3,1020.62,0,0,0,0,0.029564
2020/06/12 01:47:00.006,n,192,1.08,0.72,1.08,15.7,86.3,1020.62,0,0,0,0,0.028687
2020/06/12 01:48:00.004,n,216,0.36,0,0.72,15.7,86.4,1020.62,0,0,0,0,0.02697
2020/06/12 01:49:00.001,n,244,3.24,2.88,3.6,15.7,86.4,1020.62,0,0,0,0,0.02697
2020/06/12 01:50:00.000,n,201,0.72,0.36,1.08,15.7,86.4,1020.62,0,0,0,0,0.026131
2020/06/12 01:51:00.000,n,238,3.96,3.24,4.32,15.7,86.3,1020.62,0,0,0,0,0.02697
2020/06/12 01:52:00.000,n,251,2.52,1.8,2.52,15.7,86.2,1020.62,0,0,0,0,0.02697
2020/06/12 01:53:00.005,n,255,3.24,2.88,3.96,15.7,86.1,1020.62,0,0,0,0,0.026131
2020/06/12 01:54:00.002,n,246,4.32,3.96,5.04,15.7,86.2,1020.62,0,0,0,0,0.02697
2020/06/12 01:55:00.000,n,248,1.8,1.44,1.8,15.7,86.1,1020.62,0,0,0,0,0.029564
2020/06/12 01:56:00.013,n,271,3.6,3.24,3.96,15.6,86.1,1020.62,0,0,0,0,0.019989
2020/06/12 01:57:00.010,n,235,2.88,2.52,3.24,15.6,86.1,1020.62,0,0,0,0,0.022621
2020/06/12 01:58:00.000,n,255,2.16,1.8,2.88,15.6,86.3,1020.52,0,0,0,0,0.027847
2020/06/12 01:59:00.000,n,254,2.16,1.44,2.88,15.6,86.4,1020.52,0,0,0,0,0.026131
2020/06/12 02:00:00.000,n,256,1.08,0.72,1.8,15.7,86.6,1020.52,0,0,0,0,0.019989
2020/06/12 02:01:00.000,n,294,3.6,2.16,4.32,15.7,86.5,1020.52,0,0,0,0,0.019989
2020/06/12 02:02:00.000,n,266,2.52,2.16,2.88,15.7,86.4,1020.52,0,0,0,0,0.022621
2020/06/12 02:03:00.008,n,281,2.88,2.16,4.32,15.7,86.5,1020.52,0,0,0,0,0.022621
2020/06/12 02:04:00.005,n,288,1.44,1.44,1.8,15.7,86.5,1020.42,0,0,0,0,0.032234
2020/06/12 02:05:00.000,n,120,1.08,0.72,2.16,15.7,86.5,1020.42,0,0,0,0,0.037422
2020/06/12 02:06:00.012,n,44,2.52,1.8,2.88,15.7,86.3,1020.42,0,0,0,0,0.033989
2020/06/12 02:07:00.000,n,176,1.44,0.72,1.8,15.6,86.2,1020.42,0,0,0,0,0.032234
2020/06/12 02:08:00.000,n,89,1.08,0.36,2.16,15.6,86.2,1020.42,0,0,0,0,0.037422
2020/06/12 02:09:00.003,n,100,2.52,1.8,3.24,15.6,86.1,1020.42,0,0,0,0,0.035706
2020/06/12 02:10:00.000,n,165,1.08,0.72,1.44,15.5,86.1,1020.42,0,0,0,0,0.032234
2020/06/12 02:11:00.000,n,159,0.72,0.72,0.72,15.5,86.1,1020.42,0,0,0,0,0.034828
2020/06/12 02:12:00.000,n,139,4.32,3.96,4.68,15.5,86.2,1020.42,0,0,0,0,0.030479
2020/06/12 02:13:00.008,n,152,2.88,2.52,3.24,15.5,86.2,1020.42,0,0,0,0,0.02964
2020/06/12 02:14:00.005,n,228,2.88,2.16,3.96,15.5,86.2,1020.42,0,0,0,0,0.028725
2020/06/12 02:15:00.004,n,203,3.6,3.24,3.6,15.5,86.2,1020.42,0,0,0,0,0.028725
2020/06/12 02:16:00.001,n,353,2.88,2.52,3.24,15.5,86.3,1020.42,0,0,0,0,0.032234
2020/06/12 02:17:00.000,n,242,2.16,1.8,2.52,15.5,86.4,1020.42,0,0,0,0,0.02964
2020/06/12 02:18:00.000,n,246,2.88,2.16,3.6,15.5,86.5,1020.42,0,0,0,0,0.02964
2020/06/12 02:19:00.000,n,271,4.68,4.32,4.68,15.5,86.5,1020.42,0,0,0,0,0.02964
2020/06/12 02:20:00.006,n,267,2.88,1.8,4.68,15.5,86.8,1020.42,0,0,0,0,0.02964
2020/06/12 02:21:00.004,n,269,3.96,3.6,4.32,15.6,86.9,1020.42,0,0,0,0,0.030479
2020/06/12 02:22:00.001,n,274,4.32,3.96,4.68,15.6,86.7,1020.42,0,0,0,0,0.02964
2020/06/12 02:23:00.014,n,260,2.16,1.8,2.52,15.6,86.4,1020.52,0,0,0,0,0.028725
2020/06/12 02:24:00.012,n,259,4.32,4.32,4.68,15.6,86.3,1020.52,0,0,0,0,0.025291
2020/06/12 02:25:00.000,n,267,3.96,3.6,4.68,15.5,86.2,1020.52,0,0,0,0,0.027847
2020/06/12 02:26:00.000,n,276,5.76,5.4,6.12,15.5,86.3,1020.52,0,0,0,0,0.030479
2020/06/12 02:27:00.003,n,273,3.96,3.24,4.32,15.5,86.4,1020.52,0,0,0,0,0.030479
2020/06/12 02:28:00.000,n,270,3.96,3.6,4.32,15.5,86.3,1020.52,0,0,0,0,0.027008
2020/06/12 02:29:00.000,n,261,5.04,3.96,5.4,15.5,86.3,1020.52,0,0,0,0,0.030479
2020/06/12 02:30:00.000,n,266,5.76,5.4,6.12,15.5,86.1,1020.52,0,0,0,0,0.030479
2020/06/12 02:31:00.008,n,276,4.32,3.96,5.04,15.4,86.1,1020.52,0,0,0,0,0.025291
2020/06/12 02:32:00.005,n,260,4.32,3.96,4.68,15.4,86.1,1020.52,0,0,0,0,0.028725
2020/06/12 02:33:00.001,n,248,3.96,3.24,4.32,15.4,86.1,1020.52,0,0,0,0,0.027008
2020/06/12 02:34:00.000,n,267,4.32,3.24,4.32,15.4,86.1,1020.52,0,0,0,0,0.025291
2020/06/12 02:35:00.000,n,253,2.52,2.16,2.88,15.4,86.2,1020.52,0,0,0,0,0.028725
2020/06/12 02:36:00.000,n,243,3.6,3.24,3.6,15.4,86.3,1020.52,0,0,0,0,0.02964
2020/06/12 02:37:00.005,n,260,3.6,3.24,3.6,15.4,86.3,1020.52,0,0,0,0,0.027008
2020/06/12 02:38:00.002,n,256,2.16,1.8,3.24,15.4,86.2,1020.52,0,0,0,0,0.027008
2020/06/12 02:39:00.000,n,262,3.6,3.24,3.96,15.4,86.6,1020.52,0,0,0,0,0.02964
2020/06/12 02:40:00.000,n,289,2.16,1.44,2.88,15.4,86.4,1020.52,0,0,0,0,0.028725
2020/06/12 02:41:00.010,n,254,3.96,3.6,4.68,15.4,86.2,1020.52,0,0,0,0,0.027008
2020/06/12 02:42:00.006,n,263,2.52,2.16,2.88,15.3,86,1020.52,0,0,0,0,0.028725
2020/06/12 02:43:00.000,n,244,3.24,2.88,4.32,15.3,86.2,1020.52,0,0,0,0,0.027847
2020/06/12 02:44:00.000,n,271,3.24,2.88,3.6,15.3,86.1,1020.52,0,0,0,0,0.025291
2020/06/12 02:45:00.000,n,276,3.6,3.24,4.32,15.3,86.1,1020.52,0,0,0,0,0.02964
2020/06/12 02:46:00.000,n,266,3.6,3.6,3.96,15.3,86.1,1020.52,0,0,0,0,0.022659
2020/06/12 02:47:00.007,n,249,3.96,3.6,4.32,15.3,86,1020.52,0,0,0,0,0.027008
2020/06/12 02:48:00.005,n,259,2.88,2.52,3.24,15.2,86,1020.52,0,0,0,0,0.027847
2020/06/12 02:49:00.001,n,262,3.96,3.6,4.32,15.2,86.1,1020.52,0,0,0,0,0.024376
2020/06/12 02:50:00.013,n,266,4.68,4.32,4.68,15.2,86,1020.52,0,0,0,0,0.026131
2020/06/12 02:51:00.010,n,279,3.96,3.6,4.68,15.2,86,1020.52,0,0,0,0,0.027847
2020/06/12 02:52:00.000,n,267,3.6,3.24,3.96,15.2,86,1020.52,0,0,0,0,0.018311
2020/06/12 02:53:00.003,n,263,2.52,2.16,2.88,15.2,86,1020.52,0,0,0,0,0.026131
2020/06/12 02:54:00.000,n,290,5.04,3.96,5.76,15.2,86.1,1020.52,0,0,0,0,0.026131
2020/06/12 02:55:00.000,n,274,5.04,4.32,5.4,15.2,86.1,1020.62,0,0,0,0,0.024376
2020/06/12 02:56:00.000,n,259,3.24,2.52,3.6,15.2,86,1020.62,0,0,0,0,0.025291
2020/06/12 02:57:00.008,n,274,3.24,1.44,4.32,15.2,86.2,1020.62,0,0,0,0,0.024376
2020/06/12 02:58:00.005,n,265,4.32,4.32,4.68,15.2,86.2,1020.62,0,0,0,0,0.027847
2020/06/12 02:59:00.002,n,272,3.96,3.24,4.32,15.2,85.9,1020.62,0,0,0,0,0.022659
2020/06/12 03:00:00.015,n,265,4.68,4.32,5.4,15.2,85.9,1020.52,0,0,0,0,0.024376
2020/06/12 03:01:00.000,n,268,3.96,3.96,4.32,15.2,85.8,1020.62,0,0,0,0,0.025291
2020/06/12 03:02:00.000,n,254,4.32,3.96,4.32,15.2,85.8,1020.62,0,0,0,0,0.022659
2020/06/12 03:03:00.000,n,259,4.32,3.6,4.32,15.2,85.7,1020.52,0,0,0,0,0.025291
2020/06/12 03:04:00.005,n,255,3.96,2.88,4.68,15.2,85.8,1020.52,0,0,0,0,0.021782
2020/06/12 03:05:00.004,n,232,2.52,1.44,3.6,15.1,85.8,1020.52,0,0,0,0,0.025291
2020/06/12 03:06:00.000,n,271,3.96,3.24,4.32,15.1,85.7,1020.52,0,0,0,0,0.022659
2020/06/12 03:07:00.000,n,261,3.24,2.88,3.6,15.1,85.9,1020.52,0,0,0,0,0.025291
2020/06/12 03:08:00.010,n,253,5.04,3.6,5.76,15.2,85.8,1020.42,0,0,0,0,0.031395
2020/06/12 03:09:00.003,n,242,4.68,3.6,5.76,15.2,85.8,1020.42,0,0,0,0,0.034828
2020/06/12 03:10:00.001,n,241,2.52,1.8,3.96,15.2,85.8,1020.42,0,0,0,0,0.033112
2020/06/12 03:11:00.000,n,264,2.88,2.52,3.24,15.2,85.7,1020.42,0,0,0,0,0.033989
2020/06/12 03:12:00.000,n,249,2.52,2.16,2.88,15.2,85.7,1020.42,0,0,0,0,0.030479
2020/06/12 03:13:00.000,n,260,4.68,4.68,5.04,15.2,85.7,1020.42,0,0,0,0,0.028763
2020/06/12 03:14:00.006,n,257,3.6,2.88,4.68,15.2,85.7,1020.52,0,0,0,0,0.033989
2020/06/12 03:15:00.003,n,236,2.52,2.16,3.24,15.2,85.7,1020.52,0,0,0,0,0.030479
2020/06/12 03:16:00.000,n,255,3.24,1.08,3.6,15.2,85.7,1020.52,0,0,0,0,0.033112
2020/06/12 03:17:00.013,n,260,3.96,3.6,4.32,15.2,85.6,1020.52,0,0,0,0,0.02964
2020/06/12 03:18:00.010,n,274,4.32,3.96,5.04,15.2,85.6,1020.52,0,0,0,0,0.032234
2020/06/12 03:19:00.000,n,250,3.96,3.6,4.32,15.2,85.5,1020.52,0,0,0,0,0.028763
2020/06/12 03:20:00.000,n,269,5.76,3.6,6.48,15.2,85.4,1020.52,0,0,0,0,0.028763
2020/06/12 03:21:00.000,n,252,5.04,4.68,5.4,15.2,85.4,1020.52,0,0,0,0,0.036621
2020/06/12 03:22:00.000,n,255,6.12,5.4,6.48,15.2,85.3,1020.52,0,0,0,0,0.034828
2020/06/12 03:23:00.000,n,247,7.92,6.48,8.64,15.2,85.2,1020.52,0,0,0,0,0.028763
2020/06/12 03:24:00.008,n,238,5.76,5.76,6.12,15.2,85.2,1020.52,0,0,0,0,0.028763
2020/06/12 03:25:00.005,n,252,7.2,6.12,7.92,15.2,85.2,1020.52,0,0,0,0,0.031395
2020/06/12 03:26:00.003,n,262,6.12,5.4,6.84,15.2,85.1,1020.52,0,0,0,0,0.030479
2020/06/12 03:27:00.000,n,246,7.92,6.84,8.64,15.2,85.1,1020.52,0,0,0,0,0.026131
2020/06/12 03:28:00.000,n,264,5.4,3.96,6.12,15.2,85,1020.52,0,0,0,0,0.030479
2020/06/12 03:29:00.000,n,256,5.04,4.68,5.04,15.2,85,1020.52,0,0,0,0,0.030479
2020/06/12 03:30:00.000,n,256,4.32,2.88,5.4,15.2,85,1020.52,0,0,0,0,0.027885
2020/06/12 03:31:00.004,n,278,8.64,7.56,10.08,15.2,84.9,1020.52,0,0,0,0,0.027885
2020/06/12 03:32:00.002,n,259,7.2,5.4,7.92,15.2,84.8,1020.52,0,0,0,0,0.027885
2020/06/12 03:33:00.000,n,232,3.96,3.6,4.68,15.2,84.7,1020.52,0,0,0,0,0.030479
2020/06/12 03:34:00.000,n,250,3.6,3.24,4.32,15.2,84.7,1020.42,0,0,0,0,0.027046
2020/06/12 03:35:00.009,n,265,3.6,3.24,4.32,15.2,84.7,1020.42,0,0,0,0,0.030479
2020/06/12 03:36:00.006,n,241,5.76,4.68,6.48,15.2,84.6,1020.42,0,0,0,0,0.027046
2020/06/12 03:37:00.000,n,248,1.8,1.44,1.8,15.2,84.7,1020.42,0,0,0,0,0.022659
2020/06/12 03:38:00.001,n,250,8.28,7.56,9.36,15.2,84.6,1020.42,0,0,0,0,0.026131
2020/06/12 03:39:00.000,n,250,6.48,5.76,7.2,15.2,84.5,1020.42,0,0,0,0,0.031395
2020/06/12 03:40:00.000,n,239,2.88,1.8,4.32,15.2,84.4,1020.42,0,0,0,0,0.022659
2020/06/12 03:41:00.008,n,250,4.32,3.6,5.04,15.2,84.4,1020.42,0,0,0,0,0.027885
2020/06/12 03:42:00.007,n,240,2.88,2.52,3.24,15.2,84.4,1020.42,0,0,0,0,0.026131
2020/06/12 03:43:00.004,n,268,3.6,3.24,4.32,15.2,84.3,1020.42,0,0,0,0,0.033112
2020/06/12 03:44:00.001,n,244,3.24,2.88,3.6,15.2,84.4,1020.42,0,0,0,0,0.027046
2020/06/12 03:45:00.013,n,254,4.32,3.6,4.68,15.2,84.4,1020.42,0,0,0,0,0.022659
2020/06/12 03:46:00.000,n,249,3.6,3.6,3.96,15.2,84.3,1020.42,0,0,0,0,0.027046
2020/06/12 03:47:00.000,n,224,1.44,1.08,2.16,15.2,84.3,1020.42,0,0,0,0,0.02964
2020/06/12 03:48:00.000,n,256,3.96,2.88,4.68,15.2,84.4,1020.42,0,0,0,0,0.024414
2020/06/12 03:49:00.002,n,235,3.96,2.88,5.04,15.2,84.3,1020.42,0,0,0,0,0.027046
2020/06/12 03:50:00.000,n,275,5.04,3.96,5.4,15.2,84.3,1020.42,0,0,0,0,0.027885
2020/06/12 03:51:00.000,n,250,3.6,3.6,3.6,15.2,84.3,1020.42,0,0,0,0,0.027046
2020/06/12 03:52:00.010,n,253,6.12,5.04,6.48,15.2,84.2,1020.42,0,0,0,0,0.027885
2020/06/12 03:53:00.007,n,265,3.96,3.96,3.96,15.2,84.3,1020.42,0,0,0,0,0.02964
2020/06/12 03:54:00.004,n,252,6.12,4.32,7.2,15.2,84.2,1020.42,0,0,0,0,0.027885
2020/06/12 03:55:00.000,n,273,3.24,2.88,3.6,15.2,84.2,1020.42,0,0,0,0,0.027885
2020/06/12 03:56:00.000,n,276,5.76,5.76,6.12,15.2,84.1,1020.42,0,0,0,0,0.028763
2020/06/12 03:57:00.000,n,252,5.04,4.32,5.4,15.2,84.1,1020.42,0,0,0,0,0.028763
2020/06/12 03:58:00.000,n,262,5.04,4.68,5.4,15.2,84.1,1020.42,0,0,0,0,0.025253
2020/06/12 03:59:00.005,n,257,6.48,6.12,6.84,15.2,84,1020.42,0,0,0,0,0.02964
2020/06/12 04:00:00.002,n,250,3.24,2.88,3.6,15.2,84,1020.42,0,0,0,0,0.02964
2020/06/12 04:01:00.000,n,252,4.32,3.6,4.68,15.2,84,1020.42,0,0,0,0,0.027046
2020/06/12 04:02:00.013,n,256,4.68,3.96,5.4,15.2,83.9,1020.42,0,0,0,0,0.02964
2020/06/12 04:03:00.010,n,260,5.04,4.32,5.76,15.2,83.9,1020.42,0,0,0,0,0.030479
2020/06/12 04:04:00.000,n,238,2.52,2.16,3.24,15.2,83.9,1020.42,0,0,0,0,0.024414
2020/06/12 04:05:00.000,n,240,3.6,3.24,3.96,15.2,83.9,1020.42,0,0,0,0,0.023537
2020/06/12 04:06:00.000,n,265,5.76,5.04,6.12,15.2,83.9,1020.42,0,0,0,0,0.024414
2020/06/12 04:07:00.000,n,239,6.12,5.04,7.2,15.2,83.8,1020.42,0,0,0,0,0.027885
2020/06/12 04:08:00.000,n,254,7.56,6.12,8.64,15.2,83.9,1020.42,0,0,0,0,0.027885
2020/06/12 04:09:00.008,n,267,3.96,3.96,4.32,15.2,83.8,1020.42,0,0,0,0,0.02964
2020/06/12 04:10:00.005,n,241,4.68,3.6,5.04,15.2,83.7,1020.42,0,0,0,0,0.025253
2020/06/12 04:11:00.002,n,250,4.68,3.6,5.4,15.2,83.7,1020.42,0,0,0,0,0.027046
2020/06/12 04:12:00.000,n,255,6.84,6.12,7.56,15.2,83.6,1020.42,0,0,0,0,0.026131
2020/06/12 04:13:00.000,n,265,5.4,5.04,5.76,15.2,83.6,1020.42,0,0,0,0,0.027885
2020/06/12 04:14:00.000,n,261,7.2,5.76,7.92,15.2,83.6,1020.42,0,0,0,0,0.031395
2020/06/12 04:15:00.000,n,261,5.4,4.68,6.12,15.2,83.6,1020.52,0,0,0,0,0.025253
2020/06/12 04:16:00.004,n,240,5.76,5.4,6.12,15.2,83.6,1020.52,0,0,0,0,0.027046
2020/06/12 04:17:00.002,n,261,4.32,3.6,5.4,15.2,83.5,1020.42,0,0,0,0,0.027885
2020/06/12 04:18:00.000,n,241,5.04,4.32,5.76,15.2,83.5,1020.42,0,0,0,0,0.025253
2020/06/12 04:19:00.011,n,237,6.48,6.12,7.2,15.2,83.5,1020.42,0,0,0,0,0.027885
2020/06/12 04:20:00.008,n,263,5.04,4.68,5.76,15.2,83.5,1020.42,0,0,0,0,0.024414
2020/06/12 04:21:00.005,n,277,5.4,5.04,5.76,15.2,83.7,1020.42,0,0,0,0,0.027046
2020/06/12 04:22:00.000,n,260,4.32,3.6,4.68,15.2,83.6,1020.52,0,0,0,0,0.026131
2020/06/12 04:23:00.000,n,270,3.6,3.24,4.68,15.3,83.5,1020.52,0,0,0,0,0.022659
2020/06/12 04:24:00.000,n,307,1.08,0.36,1.8,15.3,83.5,1020.52,0,0,0,0,0.026131
2020/06/12 04:25:00.000,n,257,1.08,1.08,1.8,15.3,83.5,1020.52,0,0,0,0,0.030479
2020/06/12 04:26:00.009,n,236,1.8,1.44,2.16,15.3,83.4,1020.52,0,0,0,0,0.028763
2020/06/12 04:27:00.006,n,284,3.96,3.24,4.32,15.2,83.6,1020.52,0,0,0,0,0.032234
2020/06/12 04:28:00.003,n,253,1.8,1.8,2.16,15.3,83.6,1020.62,0,0,0,0,0.027885
2020/06/12 04:29:00.000,n,262,2.16,1.8,2.52,15.3,83.5,1020.62,0,0,0,0,0.027885
2020/06/12 04:30:00.014,n,233,0.72,0.72,1.08,15.3,83.4,1020.62,0,0,0,0,0.026131
2020/06/12 04:31:00.000,n,241,2.16,1.8,2.52,15.3,83.6,1020.62,0,0,0,0,0.024414
2020/06/12 04:32:00.000,n,250,2.88,2.16,3.24,15.3,83.6,1020.62,0,0,0,0,0.02964
2020/06/12 04:33:00.000,n,261,4.68,3.96,5.4,15.3,83.4,1020.62,0,0,0,0,0.025253
2020/06/12 04:34:00.002,n,253,2.88,2.16,3.96,15.3,83.3,1020.62,0,0,0,0,0.026131
2020/06/12 04:35:00.000,n,256,4.32,3.96,4.68,15.2,83.3,1020.62,0,0,0,0,0.030479
2020/06/12 04:36:00.000,n,293,4.68,3.6,6.12,15.2,83.5,1020.62,0,0,0,0,0.024414
2020/06/12 04:37:00.011,n,263,4.32,3.96,4.68,15.3,83.4,1020.62,0,0,0,0,0.027046
2020/06/12 04:38:00.008,n,245,2.88,2.52,3.96,15.2,83.4,1020.62,0,0,0,0,0.024414
2020/06/12 04:39:00.005,n,268,1.08,0.72,1.08,15.2,83.4,1020.62,0,0,0,0,0.022659
2020/06/12 04:40:00.000,n,283,3.96,3.24,4.68,15.2,83.4,1020.62,0,0,0,0,0.027885
2020/06/12 04:41:00.000,n,86,1.44,0.72,1.44,15.3,83.3,1020.62,0,0,0,0,0.026131
2020/06/12 04:42:00.000,n,232,1.8,1.08,2.16,15.2,83.3,1020.62,0,0,0,0,0.02964
2020/06/12 04:43:00.000,n,253,1.08,0.36,1.44,15.3,83.7,1020.62,0,0,0,0,0.028763
2020/06/12 04:44:00.006,n,159,2.16,1.44,2.52,15.3,83.5,1020.62,0,0,0,0,0.025253
2020/06/12 04:45:00.004,n,208,1.08,0.72,1.44,15.3,83.4,1020.62,0,0,0,0,0.028763
2020/06/12 04:46:00.002,n,168,1.08,0.72,1.44,15.3,83.3,1020.62,0,0,0,0,0.021782
2020/06/12 04:47:00.000,n,169,2.52,2.16,2.88,15.2,83.3,1020.62,0,0,0,0,0.025253
2020/06/12 04:48:00.012,n,126,1.44,1.08,1.44,15.2,83.3,1020.62,0,0,0,0,0.028763
2020/06/12 04:49:00.000,n,104,1.08,1.08,1.44,15.2,83.3,1020.62,0,0,0,0,0.026131
2020/06/12 04:50:00.000,n,142,1.44,1.08,2.16,15.2,83.3,1020.62,0,0,0,0,0.027046
2020/06/12 04:51:00.003,n,102,1.44,1.44,1.8,15.2,83.4,1020.62,0,0,0,0,0.023537
2020/06/12 04:52:00.000,n,286,1.08,0.72,1.08,15.2,83.3,1020.62,0,0,0,0,0.023537
2020/06/12 04:53:00.000,n,66,0.72,0.72,0.72,15.2,83.2,1020.72,0,0,0,0,0.024414